Regional Weather Roundup
Issued by NWS

Home | Current Version | Previous Version | Graphics & Text | Print | Product List | Glossary Off
Versions: 1 2 3 4 5 6 7 8 9 10 11 12 13 14 15 16 17 18 19 20 21 22 23 24 25 26 27 28 29 30 31 32 33 34 35 36 37 38 39 40 41 42 43 44 45 46 47 48 49 50

000
ASUS43 KFSD 241910
RWRSD

WEATHER ROUNDUP FOR SOUTH DAKOTA
NATIONAL WEATHER SERVICE SIOUX FALLS SD
200 PM CDT FRI MAR 24 2017

NOTE: "FAIR" INDICATES FEW OR NO CLOUDS BELOW 12,000 FEET WITH NO
SIGNIFICANT WEATHER AND/OR OBSTRUCTIONS TO VISIBILITY.


SDZ001>005-009-010-012>017-242000-
NORTHWEST AND NORTH CENTRAL SOUTH DAKOTA

CITY           SKY/WX    TMP DP  RH WIND       PRES   REMARKS
BUFFALO          N/A     57  37  47 E10       30.04F
FAITH            N/A     55  41  59 NE6       30.10F
MOBRIDGE       SUNNY     53  33  46 MISG      30.11S
$$

SDZ012>016-024>037-041>051-057-063-072>074-242000-
SOUTHWEST AND SOUTH CENTRAL SOUTH DAKOTA

CITY           SKY/WX    TMP DP  RH WIND       PRES   REMARKS
RAPID CTY ARPT PTSUNNY   56  34  43 N14G24    30.10S
PIERRE         MOSUNNY   56  36  47 N12       30.10S
CUSTER         SUNNY     51  21  30 VRB6      30.11S
ELLSWORTH AFB  MOSUNNY   57  33  39 N17G23    30.09F
PHILIP         SUNNY     61  36  39 VRB6      30.09F
PINE RIDGE     SUNNY     58  36  43 N12       30.11S
SPEARFISH      FAIR      54  25  32 N8G14     30.12F
WINNER         FAIR      56  36  47 N18       30.09R
$$

SDZ004>011-016>023-039-040-242000-
NORTHEAST SOUTH DAKOTA

CITY           SKY/WX    TMP DP  RH WIND       PRES   REMARKS
ABERDEEN       CLOUDY    41  30  65 N14       30.16R
WATERTOWN      CLOUDY    37  34  89 N17       30.09R
BROOKINGS      CLOUDY    38  34  85 NE9       30.11R
SISSETON         N/A     40  35  83 NE17      30.13S
$$

SDZ017-020-022-023-036>040-048>070-242000-
SOUTHEAST SOUTH DAKOTA

CITY           SKY/WX    TMP DP  RH WIND       PRES   REMARKS
SIOUX FALLS    CLOUDY    43  37  79 NE15      30.08R
HURON          CLOUDY    46  37  71 N13       30.12R
CHAMBERLAIN    MOSUNNY   51  37  60 NE12      30.11R
MITCHELL       CLOUDY    46  38  73 N17       30.11R
YANKTON        CLOUDY    41  36  81 N13G20    30.06S
$$

ABBREVIATIONS USED IN REMARKS
   TC - TEMPERATURE IN CELSIUS
  WCI - WIND CHILL INDEX
   HX - HEAT INDEX
  VSB - VISIBILITY





USA.gov is the U.S. government's official web portal to all federal, state and local government web resources and services.